Briefing drone pour Romorantin-lanthenay (LFYR)

Rechercher une autre localisation

Conditions de vol :


Nous sommes le : Mercredi 14 avril 2021
Il est 02:07 UTC (04:07 LT)

Lever de soleil : 04:39 UTC (06:39 LT)
Coucher de soleil : 19:07 UTC (21:07 LT)

Météo

L'essentiel des conditions de vol

VIGILANCE MÉTÉO FRANCE - Loir-et-Cher (41)
Pas de vigilances particulieres
CARTE TEMSI
CARTES DES FRONTS
METAR de LFYR
LFYR 140200Z AUTO 03003KT 360V060 CAVOK 01/M04 Q1028

Date d'émission: 14/04/2021
Heure d'émission: 02:00 UTC
Vent: 030° (variable du 360° au 060°) pour 3 KT (6 km/h)
Visibilité horizontale: > 10 km
Plafond : Plafond et visibilité OK (CAVOK)
Température: 1 °C
Point de rosée: -4 °C
Humidité: 69%
Pression (QNH): 1028 hPa
TAF de LFYR
LFYR 131400Z 1315/1415 03009KT CAVOK

Conditions prévues :

Heure d'émission : Bulletin éffectué le 13 à 15:00 UTC
Prévision : Valide du 13 a 15:00 UTC au 14 a 15:00 UTC
Vent : 30° pour 9 KT (17 km/h)
Visibilité : > 10 km
WEBCAM POUR ROMORANTIN-LANTHENAY

Réglementation

Voler en sécurité

CARTES AERONAUTIQUE 1/500.000
CARTES VAC (LFYR)
SUP AIP




Chargement des AIP...
NOTAM (ROMORANTIN-LANTHENAY + Terrain à proximité / FIR )




Chargement des NOTAMS...
CONTACT PREFECTURE 41
Loir-et-Cher (41) : pref-bpas@loir-et-cher.gouv.fr


Avertissement : Les données mises à disposition sont indicatives. Oxygène Drone ne pourra être tenu responsable de dégâts causés aux biens et aux personnes.